This is the latest recevied weather packets stored in our database for station/object OK2VOP-6. If no packets are shown the sender has not sent any weather packets the latest 10 day(s).
| Time | Temp. | Humidity | Pressure | Rain* | Wind** | Luminosity | Snow |
|---|---|---|---|---|---|---|---|
| 1788052953 | 17.22° C | 51% | - | 0 mm | - | - | - |
| 1788051748 | 18.33° C | 44% | - | 0 mm | - | - | - |
| 1788050543 | 18.33° C | 41% | - | 0 mm | - | - | - |
| 1788049338 | 18.33° C | 45% | - | 0 mm | - | - | - |
| 1788048133 | 16.67° C | 51% | - | 0 mm | - | - | - |
| 1788046928 | 17.22° C | 48% | - | 0 mm | - | - | - |
| 1788045723 | 18.33° C | 44% | - | 0 mm | - | - | - |
| 1788044518 | 18.89° C | 39% | - | 0 mm | - | - | - |
| 1788043314 | 18.89° C | 41% | - | 0 mm | - | - | - |
| 1788042109 | 19.44° C | 41% | - | 0 mm | - | - | - |
| 1788040904 | 18.89° C | 40% | - | 0 mm | - | - | - |
| 1788039699 | 19.44° C | 38% | - | 0 mm | - | - | - |
| 1788038497 | 19.44° C | 39% | - | 0 mm | - | - | - |
| 1788037290 | 20° C | 38% | - | 0 mm | - | - | - |
| 1788036085 | 20° C | 38% | - | 0 mm | - | - | - |
| 1788033676 | 19.44° C | 41% | - | 0 mm | - | - | - |
| 1788032471 | 19.44° C | 42% | - | 0 mm | - | - | - |
| 1788031266 | 19.44° C | 43% | - | 0 mm | - | - | - |
| 1788030061 | 20° C | 43% | - | 0 mm | - | - | - |
| 1788028856 | 20° C | 42% | - | 0 mm | - | - | - |
| 1788027651 | 20.56° C | 39% | - | 0 mm | - | - | - |
| 1788026447 | 21.11° C | 38% | - | 0 mm | - | - | - |
| 1788025241 | 22.22° C | 37% | - | 0 mm | - | - | - |
| 1788024037 | 22.78° C | 35% | - | 0 mm | - | - | - |
| 1788022832 | 23.33° C | 33% | - | 0 mm | - | - | - |
* Rain latest hour (hover to see other rain measurements)
** Current wind speed in m/s (hover to see current wind gust speed)